Regional Weather Roundup
Issued by NWS

Home | Current Version | Previous Version | Text Only | Print | Product List | Glossary On
Versions: 1 2 3 4 5 6 7 8 9 10 11 12 13 14 15 16 17 18 19 20 21 22 23 24 25 26 27 28 29 30 31 32 33 34 35 36 37 38 39 40 41 42 43 44 45 46 47
526
ASUS42 KKEY 101810
RWRKEY

FLORIDA REGIONAL WEATHER ROUNDUP FOR THE FLORIDA KEYS
NATIONAL WEATHER SERVICE KEY WEST FLORIDA
100 PM EST WED FEB 10 2016

...SOUTH FLORIDA AND THE KEYS...

CITY           SKY/WX    TMP DP  RH WIND       PRES   REMARKS
FORT MYERS     MOSUNNY   61  40  45 N9        30.22F
SW REGIONAL AP MOSUNNY   62  40  44 NW8       30.22F
NAPLES         MOSUNNY   62  43  49 NW6G16    30.23F
MIAMI          PTSUNNY   63  42  46 NW9       30.22F
WEST KENDALL   MOSUNNY   64  48  56 N7        30.22F
HOMESTEAD      PTSUNNY   63  46  52 NW8       30.20F
MARATHON       PTSUNNY   64  51  62 NE10      30.22F
BOCA CHICA NAS PTSUNNY   67  53  61 NE9       30.22F
KEY WEST INTL  MOSUNNY   66  54  65 NE12G18   30.22F

...INTERNATIONAL WEATHER...

CITY           SKY/WX    TMP DP  RH WIND       PRES   REMARKS
NASSAU BAHAMAS PTSUNNY   70  57  64 W10       30.19F
CANCUN MEXICO  PTSUNNY   72  54  53 NW16      30.28F
COZUMEL MEXICO MOSUNNY   70  57  64 N9        30.29F

ADJACENT COASTAL WATERS...

STATION/POSITION TIME  SKY/WX   TEMP    WIND        PRES    WAVE
                                AIR SEA DIR/SP/G            HT/PER
                 (UTC)          (F)     (DEG/KT/KT) (MB)    (FT/S)
PULASKI SHOAL LI 1700                                 N/A
SAND KEY         1750            63      40/ 11/ 14 1023.5F
SOMBRERO KEY     NOT AVBL
LONG KEY         1800            60 65   40/  8/  9 1024.0F
MOLASSES REEF    1800            60 72  360/  8/  9 1023.0F
FOWEY ROCKS      NOT AVBL

$$




USA.gov is the U.S. government's official web portal to all federal, state and local government web resources and services.